Location: Oberstdorf
(47.4188°N, 10.2969°E)
Time: 07:58:58
(UTC+02:00)

ISS - Visible Passes

Search period start: 09 May 2021 00:00
Search period end: 19 May 2021 00:00
Orbit: 418 x 421 km, 51.6° (Epoch: 08 May)

Date Brightness Start Highest point End Pass type
(mag) Time Alt. Az. Time Alt. Az. Time Alt. Az.
09 May -1.8 02:03:26 26° ENE 02:03:26 26° ENE 02:05:04 10° ENE visible
09 May -2.4 03:36:22 16° WNW 03:38:46 39° N 03:41:59 10° ENE visible
10 May -0.8 01:17:27 11° ENE 01:17:27 11° ENE 01:17:37 10° ENE visible
10 May -2.6 02:50:22 34° NW 02:51:14 42° N 02:54:29 10° ENE visible
10 May -2.6 04:25:11 10° WNW 04:28:28 46° NNE 04:31:45 10° E visible
11 May -2.5 02:04:21 41° NNE 02:04:21 41° NNE 02:07:00 10° ENE visible
11 May -2.4 03:37:42 10° WNW 03:40:56 40° N 03:44:10 10° E visible
12 May -1.5 01:18:16 21° ENE 01:18:16 21° ENE 01:19:34 10° ENE visible
12 May -2.3 02:51:12 17° WNW 02:53:24 38° N 02:56:36 10° ENE visible
12 May -3.5 04:27:08 10° WNW 04:30:31 73° NNE 04:33:53 10° ESE visible
13 May -0.8 00:32:06 10° ENE 00:32:06 10° ENE 00:32:07 10° ENE visible
13 May -2.3 02:05:02 32° NW 02:05:51 39° N 02:09:03 10° ENE visible
13 May -3.1 03:39:42 10° WNW 03:43:02 56° NNE 03:46:23 10° E visible
14 May -2.4 01:18:38 40° N 01:18:38 40° N 01:21:33 10° ENE visible
14 May -2.7 02:52:15 10° WNW 02:55:31 46° NNE 02:58:48 10° E visible
14 May -3.7 04:29:06 10° WNW 04:32:25 55° SSW 04:35:44 10° SE visible
14 May -3.6 22:50:39 10° SW 22:53:55 49° SSE 22:55:39 24° E visible
15 May -2.8 00:27:29 10° W 00:30:47 48° NNW 00:34:04 10° ENE visible
15 May -2.4 02:04:46 10° WNW 02:07:59 40° N 02:11:13 10° E visible
15 May -3.9 03:41:38 10° WNW 03:45:01 81° SSW 03:48:24 10° ESE visible
15 May -3.1 22:03:32 10° SSW 22:06:34 32° SE 22:09:37 10° ENE visible
15 May -3.2 23:39:55 10° W 23:43:16 60° NNW 23:46:37 10° ENE visible
16 May -2.3 01:17:14 10° WNW 01:20:26 38° N 01:23:38 10° ENE visible
16 May -3.6 02:54:11 10° WNW 02:57:34 73° NNE 03:00:57 10° ESE visible
16 May -2.6 04:31:21 10° W 04:34:08 24° SW 04:36:54 10° SSE visible
16 May -3.7 22:52:25 10° WSW 22:55:47 79° NNW 22:59:10 10° ENE visible
17 May -2.3 00:29:41 10° WNW 00:32:53 38° N 00:36:06 10° ENE visible
17 May -3.1 02:06:45 10° WNW 02:10:05 56° NNE 02:13:25 10° E visible
17 May -3.2 03:43:41 10° WNW 03:46:49 36° SW 03:49:56 10° SSE visible
17 May -3.9 22:04:59 10° WSW 22:08:20 74° SSE 22:11:43 10° ENE visible
17 May -2.5 23:42:07 10° W 23:45:20 41° N 23:48:35 10° ENE visible
18 May -2.7 01:19:17 10° WNW 01:22:34 46° NNE 01:22:56 44° NE visible
18 May -2.7 22:54:31 10° W 22:57:48 48° NNW 23:01:06 10° ENE visible
